When you browse on this site, cookies collect data to enhance your experience and personalize the content and advertising you see.
Visit our Privacy Policy to learn more. By continuing to use the site, you agree to this use of cookies and data.
  • In Hungary
  • List of Countries
  • For 7 days
  • Water Temperature
  • Weather Map
  • News
  • Weather Widgets
  • user-avatar
    Login

    Hourly Weather Akil

    Today, 21 November, Thursday

    Time Temperature Precipitation Wind Pressure Humidity
    00:00 +23°C° 0 mm 1 mps 759 mmHg 91%
    01:00 +23°C° 0 mm 1 mps 759 mmHg 92%
    02:00 +22°C° 0 mm 1 mps 759 mmHg 92%
    03:00 +22°C° 0 mm 1 mps 759 mmHg 92%
    04:00 +22°C° 0 mm 1 mps 759 mmHg 92%
    05:00 +22°C° 0 mm 1 mps 759 mmHg 92%
    06:00 +22°C° 0 mm 1 mps 759 mmHg 91%
    07:00 +24°C° 0 mm 2 mps 760 mmHg 83%
    08:00 +26°C° 0 mm 2 mps 760 mmHg 74%
    09:00 +28°C° 0 mm 2 mps 760 mmHg 65%
    10:00 +29°C° 0 mm 2 mps 759 mmHg 61%
    11:00 +30°C° 0 mm 2 mps 759 mmHg 56%
    12:00 +32°C° 0 mm 2 mps 758 mmHg 51%
    13:00 +31°C° 0.2 mm 2 mps 758 mmHg 58%
    14:00 +30°C° 0.2 mm 2 mps 757 mmHg 65%
    15:00 +29°C° 0.2 mm 2 mps 757 mmHg 72%
    16:00 +27°C° 0.3 mm 1 mps 757 mmHg 80%
    17:00 +26°C° 0.3 mm 1 mps 758 mmHg 88%
    18:00 +24°C° 0.3 mm 1 mps 758 mmHg 96%
    19:00 +24°C° 0.1 mm 1 mps 758 mmHg 97%
    20:00 +24°C° 0.1 mm 1 mps 759 mmHg 97%
    21:00 +23°C° 0.1 mm 1 mps 759 mmHg 98%
    22:00 +23°C° 0 mm 1 mps 759 mmHg 98%
    23:00 +22°C° 0 mm 1 mps 759 mmHg 98%

    Tomorrow, 22 November, Friday

    Time Temperature Precipitation Wind Pressure Humidity
    00:00 +22°C° 0 mm 1 mps 759 mmHg 99%
    01:00 +22°C° 0 mm 1 mps 758 mmHg 99%
    02:00 +21°C° 0 mm 1 mps 758 mmHg 99%
    03:00 +21°C° 0 mm 1 mps 758 mmHg 99%
    04:00 +21°C° 0 mm 1 mps 758 mmHg 99%
    05:00 +21°C° 0 mm 1 mps 758 mmHg 99%
    06:00 +20°C° 0 mm 1 mps 758 mmHg 99%
    07:00 +22°C° 0 mm 1 mps 759 mmHg 94%
    08:00 +24°C° 0 mm 1 mps 759 mmHg 88%
    09:00 +25°C° 0 mm 1 mps 759 mmHg 83%
    10:00 +28°C° 0 mm 1 mps 759 mmHg 70%
    11:00 +30°C° 0 mm 1 mps 758 mmHg 57%
    12:00 +32°C° 0 mm 1 mps 758 mmHg 43%
    13:00 +33°C° 0 mm 1 mps 757 mmHg 42%
    14:00 +33°C° 0 mm 1 mps 756 mmHg 41%
    15:00 +33°C° 0 mm 1 mps 756 mmHg 40%
    16:00 +31°C° 0 mm 1 mps 756 mmHg 49%
    17:00 +28°C° 0 mm 1 mps 756 mmHg 57%
    18:00 +26°C° 0 mm 1 mps 756 mmHg 65%
    19:00 +25°C° 0 mm 1 mps 757 mmHg 73%
    20:00 +24°C° 0 mm 1 mps 757 mmHg 80%
    21:00 +23°C° 0 mm 1 mps 758 mmHg 88%
    22:00 +23°C° 0 mm 1 mps 758 mmHg 91%
    23:00 +23°C° 0 mm 1 mps 757 mmHg 94%

    Day after tomorrow, 23 November, Saturday

    Time Temperature Precipitation Wind Pressure Humidity
    00:00 +22°C° 0 mm 1 mps 757 mmHg 97%
    01:00 +22°C° 0 mm 1 mps 757 mmHg 97%
    02:00 +21°C° 0 mm 1 mps 757 mmHg 98%
    03:00 +21°C° 0 mm 1 mps 757 mmHg 98%
    04:00 +21°C° 0 mm 1 mps 757 mmHg 98%
    05:00 +21°C° 0 mm 1 mps 757 mmHg 98%
    06:00 +19°C° 0 mm 0 mps 757 mmHg 98%
    07:00 +23°C° 0 mm 1 mps 758 mmHg 88%
    08:00 +26°C° 0 mm 1 mps 759 mmHg 78%
    09:00 +28°C° 0 mm 1 mps 759 mmHg 68%
    10:00 +30°C° 0 mm 1 mps 759 mmHg 60%
    11:00 +32°C° 0 mm 1 mps 758 mmHg 52%
    12:00 +34°C° 0 mm 1 mps 758 mmHg 44%
    13:00 +33°C° 0 mm 1 mps 757 mmHg 46%
    14:00 +33°C° 0 mm 1 mps 757 mmHg 47%
    15:00 +30°C° 0 mm 0 mps 756 mmHg 49%
    16:00 +31°C° 0 mm 1 mps 756 mmHg 54%
    17:00 +29°C° 0 mm 1 mps 757 mmHg 59%
    18:00 +28°C° 0 mm 1 mps 757 mmHg 64%
    19:00 +27°C° 0 mm 1 mps 757 mmHg 69%
    20:00 +26°C° 0 mm 1 mps 758 mmHg 74%
    21:00 +25°C° 0 mm 1 mps 758 mmHg 79%
    22:00 +24°C° 0 mm 1 mps 758 mmHg 83%
    23:00 +21°C° 0 mm 0 mps 758 mmHg 88%

    24 November, Sunday

    Time Temperature Precipitation Wind Pressure Humidity
    00:00 +20°C° 0 mm 0 mps 758 mmHg 92%
    01:00 +20°C° 0 mm 0 mps 758 mmHg 94%
    02:00 +20°C° 0 mm 0 mps 757 mmHg 96%
    03:00 +19°C° 0 mm 0 mps 757 mmHg 97%
    04:00 +19°C° 0 mm 0 mps 758 mmHg 97%
    05:00 +19°C° 0 mm 0 mps 758 mmHg 98%
    06:00 +18°C° 0 mm 0 mps 758 mmHg 98%
    07:00 +21°C° 0 mm 0 mps 759 mmHg 86%
    08:00 +25°C° 0 mm 1 mps 759 mmHg 75%
    09:00 +28°C° 0 mm 1 mps 759 mmHg 63%
    10:00 +29°C° 0 mm 1 mps 759 mmHg 57%
    11:00 +31°C° 0 mm 1 mps 758 mmHg 50%
    12:00 +32°C° 0 mm 2 mps 758 mmHg 43%
    13:00 +32°C° 0 mm 2 mps 757 mmHg 44%
    14:00 +32°C° 0 mm 2 mps 757 mmHg 45%
    15:00 +32°C° 0 mm 2 mps 756 mmHg 46%
    16:00 +30°C° 0 mm 1 mps 756 mmHg 54%
    17:00 +28°C° 0 mm 1 mps 756 mmHg 61%
    18:00 +27°C° 0 mm 1 mps 757 mmHg 69%
    19:00 +25°C° 0 mm 1 mps 757 mmHg 74%
    20:00 +24°C° 0 mm 1 mps 757 mmHg 80%
    21:00 +23°C° 0 mm 1 mps 758 mmHg 85%
    22:00 +22°C° 0 mm 1 mps 758 mmHg 88%
    23:00 +20°C° 0 mm 0 mps 757 mmHg 91%

    25 November, Monday

    Time Temperature Precipitation Wind Pressure Humidity
    00:00 +19°C° 0 mm 0 mps 757 mmHg 93%
    01:00 +19°C° 0 mm 0 mps 757 mmHg 94%
    02:00 +19°C° 0 mm 0 mps 757 mmHg 95%
    03:00 +19°C° 0 mm 0 mps 756 mmHg 96%
    04:00 +19°C° 0 mm 0 mps 757 mmHg 97%
    05:00 +19°C° 0 mm 0 mps 757 mmHg 97%
    06:00 +20°C° 0 mm 1 mps 757 mmHg 98%
    07:00 +23°C° 0 mm 1 mps 757 mmHg 88%
    08:00 +25°C° 0 mm 1 mps 757 mmHg 77%
    09:00 +28°C° 0 mm 1 mps 758 mmHg 67%
    10:00 +30°C° 0 mm 1 mps 757 mmHg 59%
    11:00 +32°C° 0 mm 1 mps 756 mmHg 51%
    12:00 +32°C° 0 mm 0 mps 756 mmHg 43%
    13:00 +33°C° 0 mm 1 mps 755 mmHg 46%
    14:00 +32°C° 0 mm 1 mps 754 mmHg 49%
    15:00 +31°C° 0 mm 1 mps 754 mmHg 51%
    16:00 +30°C° 0 mm 1 mps 754 mmHg 58%
    17:00 +28°C° 0 mm 1 mps 754 mmHg 65%
    18:00 +26°C° 0 mm 1 mps 755 mmHg 72%
    19:00 +25°C° 0 mm 1 mps 755 mmHg 76%
    20:00 +25°C° 0 mm 1 mps 755 mmHg 80%
    21:00 +24°C° 0 mm 1 mps 756 mmHg 85%
    22:00 +23°C° 0 mm 1 mps 755 mmHg 87%
    23:00 +23°C° 0 mm 1 mps 755 mmHg 89%

    26 November, Tuesday

    Time Temperature Precipitation Wind Pressure Humidity
    00:00 +22°C° 0 mm 1 mps 755 mmHg 92%
    01:00 +22°C° 0 mm 1 mps 755 mmHg 93%
    02:00 +21°C° 0 mm 1 mps 754 mmHg 95%
    03:00 +21°C° 0 mm 1 mps 754 mmHg 97%
    04:00 +21°C° 0 mm 1 mps 754 mmHg 97%
    05:00 +21°C° 0 mm 1 mps 755 mmHg 97%
    06:00 +21°C° 0 mm 1 mps 755 mmHg 98%
    07:00 +23°C° 0 mm 1 mps 755 mmHg 88%
    08:00 +25°C° 0 mm 2 mps 756 mmHg 78%
    09:00 +28°C° 0 mm 2 mps 756 mmHg 68%
    10:00 +29°C° 0 mm 2 mps 756 mmHg 63%
    11:00 +31°C° 0 mm 2 mps 755 mmHg 57%
    12:00 +34°C° 0 mm 2 mps 754 mmHg 52%
    13:00 +34°C° 0 mm 2 mps 754 mmHg 52%
    14:00 +34°C° 0 mm 3 mps 753 mmHg 52%
    15:00 +34°C° 0 mm 3 mps 753 mmHg 52%
    16:00 +31°C° 0 mm 2 mps 753 mmHg 60%
    17:00 +29°C° 0 mm 2 mps 753 mmHg 67%
    18:00 +27°C° 0 mm 2 mps 754 mmHg 75%
    19:00 +27°C° 0 mm 2 mps 755 mmHg 77%
    20:00 +26°C° 0 mm 2 mps 755 mmHg 78%
    21:00 +25°C° 0 mm 2 mps 756 mmHg 80%
    22:00 +25°C° 0 mm 2 mps 756 mmHg 84%
    23:00 +24°C° 0 mm 2 mps 756 mmHg 87%
    Show more